Weather History for KCKC - April, 2013

Change the Weather History Date:

Wednesday, April 10, 2013

  Actual Average Record
Temperature  
Mean Temperature 29 °F -  
Max Temperature 37 °F 41 °F 64 °F (2003)
Min Temperature 21 °F 24 °F 6 °F (2007)
Degree Days  
Heating Degree Days 36    
Moisture  
Dew Point 9 °F    
Average Humidity 43    
Maximum Humidity 58    
Minimum Humidity 26    
Precipitation  
Precipitation 0.00 in - - ()
Sea Level Pressure  
Sea Level Pressure 30.17 in    
Wind  
Wind Speed 7 mph (NE)    
Max Wind Speed 15 mph    
Max Gust Speed 21 mph    
Visibility 10 miles    
Events      
Averages and records for this station are not official NWS values.
T = Trace of Precipitation, MM = Missing Value Source: NWS Daily Summary

Daily Weather History Graph

Daily Weather History Graph

Search for Another Location

Airport or City:

Trip Planner

Search our weather history database for the weather conditions in past years. The results will help you decide how hot, cold, wet, or windy it might be!

Date:

Astronomy

Apr. 10, 2013 Rise Set
Actual Time 6:21 AM CDT 7:44 PM CDT
Civil Twilight 5:49 AM CDT 8:16 PM CDT
Nautical Twilight 5:10 AM CDT 8:55 PM CDT
Astronomical Twilight 4:29 AM CDT 9:37 PM CDT
Moon 6:15 AM CDT (4/10) 8:25 PM CDT (4/10)
Length of Visible Light 14h 27m
Length of Day
13h 23m
New Moon, 0% of the Moon is Illuminated
Apr 10
New Moon
Apr 18
First Quarter
Apr 25
Full
May 2
Last Quarter
May 9
New

Hourly Weather History & Observations

Time (CDT) Temp. Windchill Dew Point Humidity Pressure Visibility Wind Dir Wind Speed Gust Speed Precip Events Conditions
12:14 AM 24.8 °F 16.9 °F 10.4 °F 54% 30.17 in 10.0 mi NNW 6.9 mph - N/A   Clear
12:34 AM 24.8 °F 16.9 °F 10.4 °F 54% 30.18 in 10.0 mi North 6.9 mph - N/A   Clear
12:51 AM 24.8 °F 16.9 °F 10.4 °F 54% 30.19 in 10.0 mi North 6.9 mph - N/A   Clear
1:14 AM 24.8 °F 16.9 °F 8.6 °F 50% 30.19 in 10.0 mi North 6.9 mph - N/A   Clear
1:34 AM 24.8 °F 17.9 °F 8.6 °F 50% 30.19 in 10.0 mi North 5.8 mph - N/A   Clear
1:53 AM 24.8 °F 17.9 °F 8.6 °F 50% 30.20 in 10.0 mi North 5.8 mph - N/A   Clear
2:13 AM 24.8 °F 19.1 °F 8.6 °F 50% 30.20 in 10.0 mi North 4.6 mph - N/A   Clear
2:34 AM 24.8 °F 20.5 °F 8.6 °F 50% 30.20 in 10.0 mi North 3.5 mph - N/A   Clear
2:53 AM 23.0 °F 17.0 °F 8.6 °F 54% 30.20 in 10.0 mi North 4.6 mph - N/A   Clear
3:11 AM 23.0 °F 15.8 °F 8.6 °F 54% 30.20 in 10.0 mi North 5.8 mph - N/A   Clear
3:34 AM 21.2 °F 13.6 °F 8.6 °F 58% 30.20 in 10.0 mi North 5.8 mph - N/A   Clear
7:14 AM 21.2 °F 14.9 °F 6.8 °F 54% 30.21 in 10.0 mi North 4.6 mph - N/A   Clear
7:54 AM 24.8 °F 16.9 °F 6.8 °F 46% 30.17 in 10.0 mi NNE 6.9 mph - N/A   Clear
8:14 AM 26.6 °F 17.5 °F 6.8 °F 43% 30.17 in 10.0 mi NE 9.2 mph - N/A   Clear
8:33 AM 28.4 °F 21.2 °F 6.8 °F 40% 30.17 in 10.0 mi NNE 6.9 mph - N/A   Clear
8:53 AM 28.4 °F 20.4 °F 5.0 °F 37% 30.17 in 10.0 mi NE 8.1 mph - N/A   Clear
9:14 AM 28.4 °F 19.7 °F 5.0 °F 37% 30.19 in 10.0 mi NE 9.2 mph - N/A   Clear
9:33 AM 30.2 °F 21.9 °F 5.0 °F 34% 30.19 in 10.0 mi NNE 9.2 mph - N/A   Clear
9:53 AM 32.0 °F 23.0 °F 5.0 °F 32% 30.19 in 10.0 mi North 11.5 mph - N/A   Clear
10:14 AM 33.8 °F 25.8 °F 5.0 °F 30% 30.19 in 10.0 mi NNE 10.4 mph - N/A   Clear
10:33 AM 33.8 °F 27.7 °F 5.0 °F 30% 30.20 in 10.0 mi North 6.9 mph - N/A   Clear
10:53 AM 33.8 °F 26.4 °F 5.0 °F 30% 30.19 in 10.0 mi ENE 9.2 mph - N/A   Clear
11:14 AM 33.8 °F 27.0 °F 5.0 °F 30% 30.20 in 10.0 mi NE 8.1 mph - N/A   Clear
11:34 AM 35.6 °F 28.0 °F 6.8 °F 30% 30.21 in 10.0 mi ENE 10.4 mph - N/A   Clear
12:14 PM 37.4 °F 34.9 °F 5.0 °F 26% 30.21 in 10.0 mi NNE 3.5 mph - N/A   Clear
12:33 PM 37.4 °F - 5.0 °F 26% 30.20 in 10.0 mi Calm Calm - N/A   Clear
12:53 PM 37.4 °F 29.8 °F 6.8 °F 28% 30.18 in 10.0 mi NNE 11.5 mph - N/A   Clear
1:14 PM 37.4 °F 31.4 °F 6.8 °F 28% 30.17 in 10.0 mi NNE 8.1 mph - N/A   Clear
1:33 PM 37.4 °F 33.8 °F 8.6 °F 30% 30.16 in 10.0 mi ESE 4.6 mph - N/A   Clear
2:14 PM 37.4 °F 31.4 °F 8.6 °F 30% 30.16 in 10.0 mi SSE 8.1 mph - N/A   Clear
2:33 PM 37.4 °F 30.8 °F 8.6 °F 30% 30.17 in 10.0 mi SE 9.2 mph - N/A   Clear
2:53 PM 35.6 °F 29.2 °F 8.6 °F 33% 30.17 in 10.0 mi SSE 8.1 mph - N/A   Clear
3:14 PM 35.6 °F 28.0 °F 10.4 °F 35% 30.16 in 10.0 mi East 10.4 mph - N/A   Clear
3:34 PM 33.8 °F 25.8 °F 12.2 °F 41% 30.17 in 10.0 mi ESE 10.4 mph - N/A   Clear
3:53 PM 33.8 °F 25.8 °F 12.2 °F 41% 30.16 in 10.0 mi East 10.4 mph - N/A   Clear
4:14 PM 33.8 °F 27.0 °F 10.4 °F 38% 30.16 in 10.0 mi ESE 8.1 mph - N/A   Clear
4:34 PM 33.8 °F 27.7 °F 10.4 °F 38% 30.16 in 10.0 mi ESE 6.9 mph - N/A   Clear
4:53 PM 33.8 °F 29.6 °F 10.4 °F 38% 30.17 in 10.0 mi ESE 4.6 mph - N/A   Clear
5:14 PM 32.0 °F 25.6 °F 8.6 °F 38% 30.17 in 10.0 mi ESE 6.9 mph - N/A   Clear
5:33 PM 30.2 °F 23.4 °F 10.4 °F 44% 30.17 in 10.0 mi ESE 6.9 mph - N/A   Clear
5:53 PM 30.2 °F 23.4 °F 10.4 °F 44% 30.17 in 10.0 mi ESE 6.9 mph - N/A   Clear
6:14 PM 30.2 °F 25.4 °F 10.4 °F 44% 30.16 in 10.0 mi ESE 4.6 mph - N/A   Clear
6:33 PM 30.2 °F 23.4 °F 10.4 °F 44% 30.15 in 10.0 mi East 6.9 mph - N/A   Clear
6:53 PM 28.4 °F 23.3 °F 12.2 °F 51% 30.15 in 10.0 mi East 4.6 mph - N/A   Clear
7:14 PM 28.4 °F 22.2 °F 12.2 °F 51% 30.14 in 10.0 mi East 5.8 mph - N/A   Clear
7:34 PM 28.4 °F 21.2 °F 12.2 °F 51% 30.14 in 10.0 mi East 6.9 mph - N/A   Clear
7:54 PM 28.4 °F 24.6 °F 10.4 °F 47% 30.15 in 10.0 mi East 3.5 mph - N/A   Clear
8:13 PM 28.4 °F 24.6 °F 10.4 °F 47% 30.15 in 10.0 mi East 3.5 mph - N/A   Clear
8:34 PM 28.4 °F 21.2 °F 12.2 °F 51% 30.15 in 10.0 mi NE 6.9 mph - N/A   Clear
8:53 PM 26.6 °F 19.1 °F 12.2 °F 55% 30.13 in 10.0 mi NNE 6.9 mph - N/A   Clear
9:13 PM 26.6 °F 18.2 °F 12.2 °F 55% 30.13 in 10.0 mi NNE 8.1 mph - N/A   Clear
9:34 PM 26.6 °F 17.5 °F 12.2 °F 55% 30.12 in 10.0 mi NE 9.2 mph - N/A   Clear
9:54 PM 26.6 °F 16.2 °F 10.4 °F 51% 30.15 in 10.0 mi NE 11.5 mph - N/A   Clear
10:13 PM 26.6 °F 15.7 °F 6.8 °F 43% 30.14 in 10.0 mi NNE 12.7 mph - N/A   Clear
10:33 PM 26.6 °F 15.2 °F 6.8 °F 43% 30.14 in 10.0 mi NNE 13.8 mph - N/A   Clear
10:54 PM 24.8 °F 12.9 °F 6.8 °F 46% 30.13 in 10.0 mi NE 13.8 mph - N/A   Clear
11:13 PM 24.8 °F 12.4 °F 6.8 °F 46% 30.15 in 10.0 mi NE 15.0 mph 20.7 mph N/A   Clear
11:34 PM 24.8 °F 14.0 °F 6.8 °F 46% 30.15 in 10.0 mi NE 11.5 mph - N/A   Clear
11:53 PM 24.8 °F 14.0 °F 8.6 °F 50% 30.16 in 10.0 mi NNE 11.5 mph - N/A   Clear